This is the latest recevied weather packets stored in our database for station/object KB1WCR. If no packets are shown the sender has not sent any weather packets the latest 10 day(s).
| Time | Temp. | Humidity | Pressure | Rain* | Wind** | Luminosity | Snow |
|---|---|---|---|---|---|---|---|
| 1778066338 | 12.22° C | 91% | 1009.3 hPa | 0 mm | - | 89 W/m² | - |
| 1778066036 | 12.22° C | 90% | 1009.2 hPa | 0 mm | - | 91 W/m² | - |
| 1778065733 | 12.22° C | 91% | 1009.7 hPa | 0 mm | - | 77 W/m² | - |
| 1778065431 | 12.22° C | 91% | 1009.5 hPa | 0 mm | - | 108 W/m² | - |
| 1778065127 | 12.22° C | 91% | 1009.5 hPa | 0 mm | - | 102 W/m² | - |
| 1778064824 | 11.67° C | 92% | 1009.5 hPa | 0 mm | - | 62 W/m² | - |
| 1778064521 | 11.67° C | 92% | 1009.4 hPa | 0 mm | - | 53 W/m² | - |
| 1778064219 | 11.67° C | 92% | 1009.5 hPa | 0 mm | - | 68 W/m² | - |
| 1778063917 | 11.67° C | 92% | 1009.3 hPa | 0 mm | - | 66 W/m² | - |
| 1778063614 | 11.67° C | 92% | 1009.4 hPa | 0 mm | - | 38 W/m² | - |
| 1778063311 | 11.67° C | 92% | 1009.1 hPa | 0 mm | - | 33 W/m² | - |
| 1778063009 | 11.11° C | 93% | 1009 hPa | 0 mm | - | 43 W/m² | - |
| 1778062706 | 11.11° C | 93% | 1008.9 hPa | 0 mm | - | 39 W/m² | - |
| 1778062402 | 11.11° C | 92% | 1009.2 hPa | 0 mm | - | 39 W/m² | - |
| 1778062100 | 11.11° C | 93% | 1009.3 hPa | 0 mm | - | 33 W/m² | - |
| 1778061798 | 10.56° C | 94% | 1009.1 hPa | 0 mm | - | 31 W/m² | - |
| 1778061496 | 10.56° C | 94% | 1008.9 hPa | 0 mm | - | 28 W/m² | - |
| 1778061193 | 10.56° C | 94% | 1008.8 hPa | 0 mm | - | 23 W/m² | - |
| 1778060890 | 10.56° C | 94% | 1009.1 hPa | 0 mm | - | 15 W/m² | - |
| 1778060589 | 10.56° C | 94% | 1009.2 hPa | 0 mm | - | 11 W/m² | - |
| 1778060286 | 10.56° C | 93% | 1008.9 hPa | 0 mm | - | 8 W/m² | - |
| 1778059983 | 10.56° C | 93% | 1008.8 hPa | 0 mm | - | 4 W/m² | - |
| 1778059681 | 10.56° C | 93% | 1009 hPa | 0 mm | - | 2 W/m² | - |
| 1778059378 | 11.11° C | 92% | 1008.9 hPa | 0 mm | - | 1 W/m² | - |
| 1778059075 | 11.11° C | 92% | 1009.1 hPa | 0 mm | - | 1 W/m² | - |
* Rain latest hour (hover to see other rain measurements)
** Current wind speed in m/s (hover to see current wind gust speed)